DFLIX LQSA-LYBE

Flight info

Callsign DFLIX
Flight time 0h 37m
Altitude 17000
Route SOMUN L5 ENUPU
Aircraft SF50/L-BDGRSWY/LB2U2

Departure

Time 2026-04-26 18:42
Airport Sarajevo International Airport (LQSA)

Arrival

Time 2026-04-26 19:20
Airport Belgrade Nikola Tesla Airport (LYBE)
Time Latitude Longitude Altitude Speed Heading
2026-04-26 18:34 43.82626 18.33435 1667 ft 0 kts 26°
2026-04-26 18:40 43.82605 18.33451 1671 ft 11 kts 173°
2026-04-26 18:40 43.82509 18.33493 1671 ft 16 kts 122°
2026-04-26 18:41 43.82450 18.33625 1677 ft 15 kts 155°
2026-04-26 18:41 43.82329 18.33675 1681 ft 22 kts 163°
2026-04-26 18:41 43.82286 18.33611 1680 ft 20 kts 298°
2026-04-26 18:41 43.82450 18.33172 1667 ft 86 kts 298°
2026-04-26 18:42 43.82785 18.32259 1940 ft 109 kts 296°
2026-04-26 18:42 43.83108 18.31262 2410 ft 119 kts 294°
2026-04-26 18:42 43.83503 18.30211 2819 ft 134 kts 315°
2026-04-26 18:42 43.84406 18.29689 3242 ft 156 kts
2026-04-26 18:43 43.85219 18.30620 3990 ft 162 kts 67°
2026-04-26 18:43 43.85757 18.31998 4682 ft 165 kts 41°
2026-04-26 18:43 43.86605 18.32964 5417 ft 157 kts 46°
2026-04-26 18:43 43.87301 18.34159 5963 ft 160 kts 52°
2026-04-26 18:44 43.87995 18.35396 6475 ft 163 kts 52°
2026-04-26 18:44 43.88700 18.36634 7015 ft 166 kts 50°
2026-04-26 18:44 43.89429 18.37933 7457 ft 174 kts 49°
2026-04-26 18:44 43.90163 18.39241 7974 ft 175 kts 49°
2026-04-26 18:45 43.90918 18.40584 8474 ft 177 kts 48°
2026-04-26 18:45 43.91675 18.41929 9014 ft 178 kts 48°
2026-04-26 18:45 43.92439 18.43293 9587 ft 179 kts 47°
2026-04-26 18:45 43.93213 18.44647 10123 ft 181 kts 45°
2026-04-26 18:46 43.94177 18.45739 10605 ft 178 kts 28°
2026-04-26 18:46 43.95208 18.46717 11135 ft 181 kts 32°
2026-04-26 18:46 43.96233 18.47744 11641 ft 182 kts 32°
2026-04-26 18:46 43.97271 18.48760 12163 ft 183 kts 31°
2026-04-26 18:47 43.98316 18.49783 12665 ft 185 kts 32°
2026-04-26 18:47 43.99373 18.50815 13156 ft 186 kts 32°
2026-04-26 18:47 44.00437 18.51857 13648 ft 188 kts 32°
2026-04-26 18:47 44.01509 18.52906 14115 ft 189 kts 32°
2026-04-26 18:48 44.02589 18.53961 14532 ft 191 kts 32°
2026-04-26 18:48 44.03676 18.55026 14966 ft 192 kts 32°
2026-04-26 18:48 44.04759 18.56085 15383 ft 193 kts 33°
2026-04-26 18:48 44.05860 18.57164 15815 ft 194 kts 32°
2026-04-26 18:49 44.06967 18.58250 16242 ft 195 kts 32°
2026-04-26 18:49 44.08078 18.59341 16654 ft 196 kts 33°
2026-04-26 18:49 44.09197 18.60440 17070 ft 198 kts 33°
2026-04-26 18:49 44.10361 18.61584 17177 ft 215 kts 33°
2026-04-26 18:50 44.11634 18.62832 17186 ft 231 kts 33°
2026-04-26 18:50 44.12980 18.64159 17189 ft 243 kts 33°
2026-04-26 18:50 44.14384 18.65543 17183 ft 251 kts 33°
2026-04-26 18:50 44.15830 18.66963 17194 ft 256 kts 33°
2026-04-26 18:51 44.17280 18.68390 17191 ft 261 kts 33°
2026-04-26 18:51 44.18776 18.69865 17190 ft 265 kts 33°
2026-04-26 18:51 44.20291 18.71359 17192 ft 269 kts 34°
2026-04-26 18:51 44.21822 18.72869 17194 ft 271 kts 33°
2026-04-26 18:52 44.23371 18.74398 17190 ft 274 kts 33°
2026-04-26 18:52 44.24933 18.75943 17189 ft 277 kts 33°
2026-04-26 18:52 44.26508 18.77502 17192 ft 279 kts 33°
2026-04-26 18:52 44.28102 18.79079 17191 ft 282 kts 33°
2026-04-26 18:53 44.29716 18.80676 17195 ft 286 kts 33°
2026-04-26 18:53 44.31344 18.82286 17195 ft 288 kts 33°
2026-04-26 18:53 44.32984 18.83915 17195 ft 290 kts 33°
2026-04-26 18:53 44.34631 18.85548 17194 ft 291 kts 33°
2026-04-26 18:54 44.36284 18.87187 17191 ft 292 kts 33°
2026-04-26 18:54 44.37944 18.88837 17196 ft 293 kts 33°
2026-04-26 18:54 44.39611 18.90495 17190 ft 294 kts 33°
2026-04-26 18:54 44.41276 18.92151 17195 ft 294 kts 33°
2026-04-26 18:55 44.42946 18.93815 17195 ft 294 kts 33°
2026-04-26 18:55 44.44617 18.95480 17197 ft 295 kts 33°
2026-04-26 18:55 44.46289 18.97145 17196 ft 295 kts 33°
2026-04-26 18:55 44.47958 18.98809 17197 ft 295 kts 33°
2026-04-26 18:56 44.49607 19.00456 17203 ft 295 kts 33°
2026-04-26 18:56 44.51280 19.02127 17201 ft 295 kts 33°
2026-04-26 18:56 44.52952 19.03798 17197 ft 295 kts 33°
2026-04-26 18:56 44.54624 19.05471 17196 ft 295 kts 33°
2026-04-26 18:57 44.56295 19.07146 17192 ft 295 kts 33°
2026-04-26 18:57 44.57347 19.08365 17188 ft 297 kts 41°
2026-04-26 18:57 44.59025 19.11484 17181 ft 303 kts 58°
2026-04-26 18:57 44.59819 19.14228 17182 ft 307 kts 71°
2026-04-26 18:58 44.60175 19.17162 17182 ft 309 kts 81°
2026-04-26 18:58 44.60398 19.20165 17184 ft 309 kts 80°
2026-04-26 18:58 44.60642 19.23159 17187 ft 309 kts 80°
2026-04-26 18:58 44.60890 19.26152 17187 ft 309 kts 80°
2026-04-26 18:59 44.61133 19.29159 17187 ft 309 kts 80°
2026-04-26 18:59 44.61370 19.32156 17186 ft 309 kts 81°
2026-04-26 18:59 44.61780 19.35093 17185 ft 305 kts 69°
2026-04-26 18:59 44.62649 19.37786 17183 ft 301 kts 56°
2026-04-26 19:00 44.63878 19.40144 17191 ft 298 kts 48°
2026-04-26 19:00 44.65172 19.42425 17192 ft 299 kts 49°
2026-04-26 19:00 44.66458 19.44733 17192 ft 300 kts 49°
2026-04-26 19:00 44.67746 19.47034 17192 ft 300 kts 48°
2026-04-26 19:01 44.69040 19.49333 17203 ft 300 kts 48°
2026-04-26 19:01 44.70278 19.51694 17191 ft 302 kts 57°
2026-04-26 19:01 44.70765 19.54587 17183 ft 312 kts 88°
2026-04-26 19:01 44.70488 19.57622 17195 ft 314 kts 97°
2026-04-26 19:02 44.70060 19.60644 17194 ft 315 kts 98°
2026-04-26 19:02 44.69721 19.63685 17195 ft 314 kts 94°
2026-04-26 19:02 44.69474 19.66696 17201 ft 314 kts 93°
2026-04-26 19:02 44.69290 19.68762 17202 ft 315 kts 94°
2026-04-26 19:03 44.68868 19.72808 17202 ft 316 kts 95°
2026-04-26 19:03 44.68556 19.75867 17200 ft 315 kts 95°
2026-04-26 19:03 44.68260 19.78924 17200 ft 315 kts 95°
2026-04-26 19:03 44.67957 19.81980 17200 ft 316 kts 95°
2026-04-26 19:04 44.67648 19.85038 17114 ft 318 kts 95°
2026-04-26 19:04 44.67340 19.88100 16736 ft 321 kts 95°
2026-04-26 19:04 44.67026 19.91204 16353 ft 320 kts 95°
2026-04-26 19:04 44.66712 19.94301 15976 ft 319 kts 95°
2026-04-26 19:05 44.66086 20.00461 15236 ft 317 kts 94°
2026-04-26 19:05 44.65773 20.03520 14877 ft 316 kts 94°
2026-04-26 19:05 44.65459 20.06580 14519 ft 316 kts 94°
2026-04-26 19:06 44.65148 20.09634 14165 ft 315 kts 94°
2026-04-26 19:06 44.64839 20.12634 13794 ft 314 kts 94°
2026-04-26 19:06 44.64527 20.15653 13398 ft 312 kts 94°
2026-04-26 19:06 44.64218 20.18654 13049 ft 308 kts 94°
2026-04-26 19:07 44.63911 20.21619 12788 ft 308 kts 94°
2026-04-26 19:07 44.63602 20.24596 12532 ft 308 kts 94°
2026-04-26 19:07 44.63293 20.27566 12277 ft 305 kts 94°
2026-04-26 19:07 44.62988 20.30443 12184 ft 294 kts 94°
2026-04-26 19:08 44.62692 20.33296 12181 ft 293 kts 94°
2026-04-26 19:08 44.62396 20.36130 12182 ft 295 kts 94°
2026-04-26 19:08 44.62094 20.38982 12181 ft 294 kts 94°
2026-04-26 19:08 44.61795 20.41821 11867 ft 297 kts 94°
2026-04-26 19:09 44.61491 20.44676 11379 ft 295 kts 95°
2026-04-26 19:09 44.61191 20.47511 10891 ft 293 kts 95°
2026-04-26 19:09 44.60878 20.50317 10407 ft 290 kts 98°
2026-04-26 19:09 44.60194 20.52980 9907 ft 291 kts 115°
2026-04-26 19:10 44.59137 20.55394 9383 ft 290 kts 121°
2026-04-26 19:10 44.58056 20.57777 8895 ft 287 kts 120°
2026-04-26 19:10 44.57002 20.60142 8456 ft 287 kts 120°
2026-04-26 19:10 44.56115 20.62615 7928 ft 282 kts 101°
2026-04-26 19:11 44.56186 20.65252 7404 ft 265 kts 65°
2026-04-26 19:11 44.57222 20.67219 6891 ft 244 kts 30°
2026-04-26 19:11 44.58738 20.68117 6420 ft 232 kts
2026-04-26 19:11 44.60317 20.68186 6024 ft 227 kts 348°
2026-04-26 19:12 44.61781 20.67401 5642 ft 226 kts 328°
2026-04-26 19:12 44.62989 20.66028 5266 ft 226 kts 319°
2026-04-26 19:12 44.64171 20.64580 4979 ft 223 kts 320°
2026-04-26 19:12 44.65358 20.63292 4717 ft 209 kts 323°
2026-04-26 19:13 44.66517 20.62089 4456 ft 205 kts 323°
2026-04-26 19:13 44.67647 20.60885 4203 ft 203 kts 324°
2026-04-26 19:13 44.68764 20.59660 3998 ft 203 kts 321°
2026-04-26 19:13 44.69676 20.58121 3786 ft 207 kts 305°
2026-04-26 19:14 44.70436 20.56396 3590 ft 208 kts 306°
2026-04-26 19:14 44.71208 20.54720 3397 ft 196 kts 307°
2026-04-26 19:14 44.71911 20.53181 3178 ft 180 kts 307°
2026-04-26 19:14 44.72128 20.52706 3111 ft 176 kts 307°
2026-04-26 19:15 44.73196 20.50360 3091 ft 172 kts 307°
2026-04-26 19:15 44.73831 20.48939 3087 ft 175 kts 306°
2026-04-26 19:15 44.74485 20.47443 2928 ft 185 kts 305°
2026-04-26 19:15 44.75102 20.45929 2732 ft 170 kts 303°
2026-04-26 19:16 44.75653 20.44513 2464 ft 162 kts 304°
2026-04-26 19:16 44.76262 20.43195 2169 ft 160 kts 311°
2026-04-26 19:16 44.76944 20.41940 1832 ft 163 kts 311°
2026-04-26 19:16 44.77575 20.40594 1485 ft 165 kts 305°
2026-04-26 19:17 44.78127 20.39242 1361 ft 149 kts 303°
2026-04-26 19:17 44.78614 20.38099 1200 ft 122 kts 307°
2026-04-26 19:17 44.79028 20.37241 1024 ft 99 kts 310°
2026-04-26 19:17 44.79401 20.36449 920 ft 101 kts 306°
2026-04-26 19:18 44.79766 20.35588 799 ft 103 kts 306°
2026-04-26 19:18 44.80130 20.34751 688 ft 95 kts 306°
2026-04-26 19:18 44.80474 20.33976 657 ft 95 kts 309°
2026-04-26 19:18 44.80844 20.33164 526 ft 102 kts 303°
2026-04-26 19:19 44.81218 20.32327 382 ft 91 kts 304°
2026-04-26 19:19 44.81508 20.31676 315 ft 67 kts 302°
2026-04-26 19:19 44.81736 20.31165 313 ft 60 kts 300°
2026-04-26 19:19 44.81966 20.30644 314 ft 66 kts 302°
2026-04-26 19:20 44.82208 20.30092 312 ft 45 kts 292°
2026-04-26 19:20 44.82208 20.30008 313 ft 18 kts 216°
2026-04-26 19:20 44.82158 20.29894 314 ft 1 kts 258°
2026-04-26 19:20 44.82151 20.29790 314 ft 22 kts 278°
2026-04-26 19:21 44.82186 20.29626 314 ft 15 kts 254°
2026-04-26 19:21 44.82106 20.29613 314 ft 18 kts 130°
2026-04-26 19:21 44.82010 20.29566 314 ft 21 kts 212°
2026-04-26 19:21 44.81879 20.29450 314 ft 24 kts 211°
2026-04-26 19:22 44.81729 20.29318 314 ft 26 kts 212°
2026-04-26 19:22 44.81700 20.29193 314 ft 14 kts 253°
2026-04-26 19:22 44.81615 20.29102 314 ft 17 kts 212°
2026-04-26 19:22 44.81621 20.29034 314 ft 6 kts 31°
2026-04-26 19:23 44.81630 20.29042 314 ft 0 kts 33°